• Contacto:

    Directo: 4535-5707
    poleposition@arnet.com.ar

  • Buscar Noticias

Lambiris pulverizó los relojes

Lambiris_Viernes_Termas1

El uruguayo Mauricio Lambiris, a bordo del Ford que alista el equipo Werner Competición, se quedó con el tiempo mas veloz en lo que fue la segunda tanda de entrenamientos libres del TC Pista, bajo un cielo nublado con resolana, y con baja temperatura nuevamente.
El de Montevideo bajó en 4/10 lo realizado ayer por su compañero de equipo y poleman Nico González, y tras marcar 1m 39s 59/100 quedó con lo mejor, dejando segundo justamente al rafaelino, por 25/100. Tercero en tanto fue la mejor Dodge perteneciente a Nazareno López, quien se ubicó a 30/100, cuarto el mejor Chevrolet de Franco Girolami, a 39/100.
Completaron los mejores diez Federico Pérez, Ramiro Galarza, Nicolás Trosset, Gastón Todino, Gonzalo Perlo y Franco De Benedictis.
Vale la pena destacar el fuerte golpe que sufrió Alejandro González, quien se complica para poder clasificar ya que su Chevy quedó muy dañada.
La actividad para el TC Pista continuará con la clasificación definitiva, que se pondrá en marcha a las 12.50hs, y ordenará la grilla de las series sabatinas.

2do. Entrenamiento TC Pista – Termas de Río Hondo

1 82 Lambiris, Mauricio 8 01:39.590
2 26 González, Nicolás 8 01:39.844 0.254
3 14 López, Nazareno 10 01:39.894 0.304
4 81 Girolami, Franco 10 01:39.984 0.394
5 11 Pérez, Federico 10 01:40.024 0.434
6 21 Galarza, Ramiro 12 01:40.324 0.734
7 12 Trosset, Nicolás 11 01:40.332 0.742
8 23 Todino, Gastón 13 01:40.357 0.767
9 16 Perlo, Gonzalo 11 01:40.420 0.830
10 121 De Benedictis, Franco 11 01:40.445 0.855
11 5 Mangoni, Santiago 11 01:40.520 0.930
12 151 Urcera, José Manuel 11 01:40.608 1.018
13 15 Diruscio, Sebastián 13 01:40.693 1.103
14 7 López, Emiliano 10 01:40.833 1.243
15 95 Alonso, Federico 10 01:40.884 1.294
16 111 Pezzucchi, Nicolas 8 01:40.904 1.314
17 6 Echevarría, Camilo 10 01:40.989 1.399
18 71 Cotignola , Nicolás 10 01:41.010 1.420
19 9 Giles, Germán 10 01:41.019 1.429
20 22 Grobocopatel, Daniel 12 01:41.031 1.441
21 10 Tedeschi, Aldo 10 01:41.195 1.605
22 27 Pérez Bravo, Emanuel 13 01:41.272 1.682
23 86 Costanzo, Pablo 10 01:41.286 1.696
24 20 Gentile, Pedro 12 01:41.389 1.799
25 24 Berganza, Alejandro 12 01:41.567 1.977
26 18 Crusitta, Gastón 10 01:41.596 2.006
27 123 Alifraco, Emanuel 11 01:41.599 2.009
28 28 Paparella, Juan Manuel 10 01:41.665 2.075
29 33 Dentella, Cristian 12 01:41.727 2.137
30 17 González, Alejandro 8 01:42.358 2.768
31 37 Laccette, Darío 10 01:42.387 2.797
32 101 Garbelino, Juan 10 01:42.582 2.992
33 56 Garavano, José María 12 01:42.937 3.347
34 117 Cordich, Ignacio 9 01:43.008 3.418
35 60 Bruno, Juan Martin 8 01:43.124 3.534
36 42 Lynn, Federico 8 01:43.749 4.159
37 77 Ebarlin, Juan José 10 01:43.766 4.176
38 100 Piccinin, Esteban 12 01:44.586 4.996
39 48 Abella, Sebastián 1 01:47.992 8.402
40 31 Ferrante, Gastón 6 02:05.107 25.517

Anuncios

Responder

Introduce tus datos o haz clic en un icono para iniciar sesión:

Logo de WordPress.com

Estás comentando usando tu cuenta de WordPress.com. Cerrar sesión / Cambiar )

Imagen de Twitter

Estás comentando usando tu cuenta de Twitter. Cerrar sesión / Cambiar )

Foto de Facebook

Estás comentando usando tu cuenta de Facebook. Cerrar sesión / Cambiar )

Google+ photo

Estás comentando usando tu cuenta de Google+. Cerrar sesión / Cambiar )

Conectando a %s

A %d blogueros les gusta esto: